Weather Roundup
Issued by NWS Corpus Christi, TX

Current Version | Previous Version | Text Only | Print | Product List | Glossary On
Versions: 1 2 3 4 5 6 7 8 9 10 11 12 13 14 15 16 17 18 19 20 21 22 23 24 25 26 27 28 29 30 31 32 33 34 35 36 37 38 39 40 41 42 43 44 45 46 47 48 49 50
000
ASUS44 KCRP 290910
HRRCRP

SOUTH TEXAS REGIONAL WEATHER ROUNDUP
NATIONAL WEATHER SERVICE CORPUS CHRISTI TX
400 AM CDT SUN MAR 29 2015


TXZ229>244-291000-
...CORPUS CHRISTI AREA OBSERVATIONS...

CITY           SKY/WX    TMP DP  RH WIND       PRES   REMARKS
CORPUS CHRISTI CLEAR     63  60  90 S13       30.07F
NAS CORPUS CHR CLEAR     66  63  90 S15       30.07F
ROCKPORT       CLEAR     66  60  81 S12G18    30.07F
KINGSVILLE NAS CLEAR     63  61  93 S13       30.06F
ALICE          CLEAR     59  57  93 S8        30.06F
FALFURRIAS     CLEAR     62  59  90 S9        30.06F
$$

...VICTORIA AREA OBSERVATIONS...

CITY           SKY/WX    TMP DP  RH WIND       PRES   REMARKS
VICTORIA       CLEAR     62  60  93 S8        30.08F
BEEVILLE       FAIR      60  60 100 S9        30.07S
PLEASANTON     CLEAR     55  52  91 E3        30.06F
SAN ANTONIO    CLEAR     60  53  77 S8        30.07F
$$

...LAREDO AREA OBSERVATIONS...

CITY           SKY/WX    TMP DP  RH WIND       PRES   REMARKS
LAREDO         CLEAR     61  54  77 SE13      30.04F
COTULLA        CLEAR     59  50  72 E3        30.04F
DEL RIO        CLEAR     62  44  51 E12       30.00F
MCALLEN        CLEAR     65  60  84 S13       30.07F
HEBBRONVILLE   NOT AVBL
$$

...OTHER TEXAS OBSERVATIONS...

CITY           SKY/WX    TMP DP  RH WIND       PRES   REMARKS
BROWNSVILLE    CLEAR     64  61  90 S12       30.09F
HOUSTON        CLEAR     58  57  97 S5        30.10F
COL. STATION   CLEAR     55  50  83 SE6       30.07S
AUSTIN         CLEAR     56  53  90 S9        30.05F
WACO           CLEAR     57  49  74 S12       30.01F
FORT WORTH     CLEAR     55  46  71 SE7       29.99F
WICHITA FALLS  CLEAR     56  46  69 SE8       29.92F
LUBBOCK        CLEAR     53  39  59 S8        29.97F
EL PASO        CLEAR     77   0   5 W20       30.08R
$$

...MARINE OBSERVATIONS...

STATION/POSITION TIME  SKY/WX   TEMP    WIND        PRES    VSBY  WAVE   SWELL
                                AIR SEA DIR/SP/G                  HT/PER HT/PER
                 (UTC)          (F)     (DEG/KT/KT) (MB)    (MI)  (FT/S) (FT/S)
PORT ARANSAS     0900            66 67  180/ 19/ 22 1018.7F
BUOY 90 E PORT A 0900            70 69  190/ 17/ 21 1019.8F         5/ 6
BUOY 45 SE BAFFI 0900            69 71  190/ 19/ 23 1018.2F         4/ 5
BUOY 200 E PT IS 0900            72 72  180/ 14/ 17 1021.1F         2/ 3
BUOY 15 E GALVES 0900            66 66  180/  6/  6 1019.9F         2/ 5   2/ 5
$$



USA.gov is the U.S. government's official web portal to all federal, state and local government web resources and services.